Hourly Data Report for May 15, 2020

OTTAWA INTL A
ONTARIO
Current Station Operator: NAVCAN

45°19'00.000" N
75°40'00.000" W
114.90 m
6106001
71628
YOW

Download Data

Hourly Data (May 2020)
Hourly Data Report for May 15, 2020
TIME
LST
Temp Definition
°C
Dew Point Definition
°C
Rel Hum Definition
%
Precip. Amount Definition
mm

Wind Dir Definition
10's deg

Wind Spd Definition
km/h
Visibility Definition
km
Stn Press Definition
kPa
Hmdx Definition


Wind Chill Definition


Weather Definition


00:00 12.3 -1.9 37   11 10 24.1 99.89     LegendNANA
01:00 10.9 3.1 59   35 7 24.1 99.89     Rain Showers
02:00 10.6 2.7 58   9 10 24.1 99.78     Rain Showers
03:00 10.9 1.9 54   9 5 24.1 99.82     LegendNANA
04:00 9.7 5.6 76   9 8 12.9 99.78     Cloudy
05:00 9.2 6.0 80   17 7 24.1 99.83     Rain
06:00 9.6 7.6 87   8 8 24.1 99.84     LegendNANA
07:00 9.6 8.0 89   7 17 24.1 99.84     Mostly Cloudy
08:00 10.9 8.9 88   12 13 24.1 99.87     LegendNANA
09:00 11.7 9.8 88   8 10 24.1 99.77     LegendNANA
10:00 11.2 9.6 90   9 11 24.1 99.76     Cloudy
11:00 11.1 9.5 90   8 15 16.1 99.68     LegendNANA
12:00 10.9 10.1 95   5 21 16.1 99.57     Rain
13:00 11.0 10.4 96   7 17 16.1 99.49     Rain
14:00 10.6 10.1 96   1 21 4.8 99.60     Moderate Rain, Fog
15:00
16:00 10.9 10.3 96   3 15 24.1 99.49     Rain
17:00 11.0 10.1 94   7 7 24.1 99.43     LegendNANA
18:00 11.6 10.2 91   30 10 24.1 99.63     LegendNANA
19:00 11.9 10.6 92   30 9 24.1 99.68     Mostly Cloudy
20:00 10.7 9.9 95   25 7 24.1 99.75     LegendNANA
21:00 11.0 10.5 97   25 5 24.1 99.82     LegendNANA
22:00 12.0 11.1 94   29 13 24.1 99.87     Mostly Cloudy
23:00 11.6 10.6 93   30 13 24.1 99.87     LegendNANA

Notes on Data Quality.

Legend

  • E = Estimated
  • M = Missing
  • NA = Not Available*
  • [empty] = Indicates an unobserved value
Date modified: